• In Österreich
  • Länderverzeichnis
  • Für 7 Tage
  • Wassertemperatur
  • Satellitenkarten
  • Wetterkarte
  • News
  • Widgets
  • user-avatar
    Anmelden

    Stündliche Wetter Ordino

    Heute, 24 Februar, Samstag

    Zeit Temperatur Niederschläge Wind Luftdruck Luftfeuchtigkeit
    00:00 -7°C° 0 mm 1 m/S 622 mmHg 79%
    01:00 -8°C° 0 mm 1 m/S 622 mmHg 78%
    02:00 -8°C° 0 mm 1 m/S 622 mmHg 77%
    03:00 -8°C° 0 mm 1 m/S 622 mmHg 76%
    04:00 -8°C° 0 mm 1 m/S 622 mmHg 74%
    05:00 -8°C° 0 mm 1 m/S 622 mmHg 73%
    06:00 -8°C° 0 mm 1 m/S 622 mmHg 72%
    07:00 -4°C° 0 mm 1 m/S 623 mmHg 66%
    08:00 -3°C° 0 mm 0 m/S 624 mmHg 60%
    09:00 -1°C° 0 mm 0 m/S 625 mmHg 53%
    10:00 0°C° 0 mm 0 m/S 625 mmHg 52%
    11:00 +2°C° 0 mm 1 m/S 626 mmHg 50%
    12:00 +3°C° 0 mm 1 m/S 626 mmHg 48%
    13:00 +3°C° 0 mm 1 m/S 626 mmHg 51%
    14:00 +3°C° 0 mm 1 m/S 625 mmHg 54%
    15:00 +2°C° 0 mm 1 m/S 625 mmHg 57%
    16:00 +1°C° 0,1 mm 1 m/S 625 mmHg 64%
    17:00 -1°C° 0,1 mm 1 m/S 625 mmHg 72%
    18:00 -2°C° 0,1 mm 1 m/S 624 mmHg 79%
    19:00 -2°C° 0 mm 1 m/S 624 mmHg 80%
    20:00 -3°C° 0 mm 1 m/S 624 mmHg 80%
    21:00 -5°C° 0 mm 2 m/S 624 mmHg 81%
    22:00 -6°C° 0 mm 2 m/S 624 mmHg 79%
    23:00 -6°C° 0 mm 2 m/S 624 mmHg 76%

    Morgen, 25 Februar, Sonntag

    Zeit Temperatur Niederschläge Wind Luftdruck Luftfeuchtigkeit
    00:00 -6°C° 0 mm 2 m/S 624 mmHg 73%
    01:00 -6°C° 0 mm 2 m/S 624 mmHg 73%
    02:00 -6°C° 0 mm 2 m/S 624 mmHg 72%
    03:00 -5°C° 0 mm 2 m/S 625 mmHg 71%
    04:00 -6°C° 0 mm 2 m/S 624 mmHg 71%
    05:00 -6°C° 0 mm 2 m/S 624 mmHg 72%
    06:00 -6°C° 0 mm 2 m/S 624 mmHg 72%
    07:00 -4°C° 0 mm 2 m/S 625 mmHg 68%
    08:00 -2°C° 0 mm 2 m/S 626 mmHg 64%
    09:00 +2°C° 0 mm 1 m/S 627 mmHg 60%
    10:00 +2°C° 0 mm 2 m/S 627 mmHg 59%
    11:00 +3°C° 0 mm 2 m/S 627 mmHg 59%
    12:00 +4°C° 0 mm 2 m/S 627 mmHg 58%
    13:00 +4°C° 0 mm 2 m/S 627 mmHg 59%
    14:00 +4°C° 0 mm 2 m/S 627 mmHg 60%
    15:00 +4°C° 0 mm 2 m/S 627 mmHg 61%
    16:00 +2°C° 0 mm 2 m/S 626 mmHg 69%
    17:00 -1°C° 0 mm 2 m/S 626 mmHg 77%
    18:00 -3°C° 0 mm 2 m/S 625 mmHg 84%
    19:00 -4°C° 0 mm 2 m/S 625 mmHg 84%
    20:00 -5°C° 0 mm 2 m/S 625 mmHg 83%
    21:00 -5°C° 0 mm 2 m/S 625 mmHg 82%
    22:00 -5°C° 0 mm 2 m/S 625 mmHg 80%
    23:00 -6°C° 0 mm 2 m/S 625 mmHg 78%

    übermorgen, 26 Februar, Montag

    Zeit Temperatur Niederschläge Wind Luftdruck Luftfeuchtigkeit
    00:00 -6°C° 0 mm 2 m/S 625 mmHg 76%
    01:00 -6°C° 0 mm 2 m/S 625 mmHg 76%
    02:00 -6°C° 0 mm 2 m/S 625 mmHg 76%
    03:00 -6°C° 0 mm 2 m/S 624 mmHg 76%
    04:00 -7°C° 0 mm 2 m/S 624 mmHg 76%
    05:00 -7°C° 0 mm 2 m/S 624 mmHg 77%
    06:00 -7°C° 0 mm 2 m/S 624 mmHg 77%
    07:00 -6°C° 0 mm 2 m/S 624 mmHg 72%
    08:00 -4°C° 0 mm 2 m/S 625 mmHg 68%
    09:00 -3°C° 0 mm 2 m/S 626 mmHg 63%
    10:00 -2°C° 0 mm 2 m/S 626 mmHg 60%
    11:00 -1°C° 0 mm 2 m/S 626 mmHg 58%
    12:00 +1°C° 0 mm 2 m/S 626 mmHg 55%
    13:00 -1°C° 0 mm 2 m/S 625 mmHg 58%
    14:00 -1°C° 0 mm 2 m/S 625 mmHg 60%
    15:00 -2°C° 0 mm 2 m/S 624 mmHg 63%
    16:00 -3°C° 0,1 mm 2 m/S 624 mmHg 68%
    17:00 -5°C° 0,1 mm 2 m/S 623 mmHg 72%
    18:00 -6°C° 0,1 mm 2 m/S 623 mmHg 77%
    19:00 -7°C° 0,2 mm 2 m/S 623 mmHg 77%
    20:00 -7°C° 0,2 mm 2 m/S 623 mmHg 76%
    21:00 -8°C° 0,2 mm 2 m/S 623 mmHg 76%
    22:00 -7°C° 0,2 mm 1 m/S 623 mmHg 76%
    23:00 -7°C° 0,2 mm 1 m/S 623 mmHg 77%

    27 Februar, Dienstag

    Zeit Temperatur Niederschläge Wind Luftdruck Luftfeuchtigkeit
    00:00 -8°C° 0,2 mm 1 m/S 623 mmHg 77%
    01:00 -8°C° 0,2 mm 1 m/S 623 mmHg 77%
    02:00 -8°C° 0,2 mm 1 m/S 622 mmHg 77%
    03:00 -8°C° 0,2 mm 1 m/S 622 mmHg 77%
    04:00 -8°C° 0,1 mm 1 m/S 622 mmHg 77%
    05:00 -9°C° 0,1 mm 1 m/S 622 mmHg 77%
    06:00 -9°C° 0,1 mm 1 m/S 622 mmHg 77%
    07:00 -8°C° 0 mm 1 m/S 622 mmHg 73%
    08:00 -7°C° 0 mm 1 m/S 623 mmHg 69%
    09:00 -7°C° 0 mm 2 m/S 623 mmHg 65%
    10:00 -6°C° 0,1 mm 2 m/S 624 mmHg 63%
    11:00 -5°C° 0,1 mm 2 m/S 624 mmHg 61%
    12:00 -5°C° 0,1 mm 2 m/S 624 mmHg 59%
    13:00 -5°C° 0,1 mm 2 m/S 624 mmHg 60%
    14:00 -5°C° 0,1 mm 2 m/S 623 mmHg 61%
    15:00 -5°C° 0,1 mm 2 m/S 623 mmHg 62%
    16:00 -4°C° 0,1 mm 1 m/S 623 mmHg 66%
    17:00 -6°C° 0,1 mm 1 m/S 623 mmHg 70%
    18:00 -7°C° 0,1 mm 1 m/S 622 mmHg 74%
    19:00 -7°C° 0,1 mm 1 m/S 623 mmHg 74%
    20:00 -7°C° 0,1 mm 1 m/S 623 mmHg 75%
    21:00 -7°C° 0,1 mm 1 m/S 623 mmHg 75%
    22:00 -7°C° 0,1 mm 1 m/S 623 mmHg 75%
    23:00 -7°C° 0,1 mm 1 m/S 623 mmHg 76%

    28 Februar, Mittwoch

    Zeit Temperatur Niederschläge Wind Luftdruck Luftfeuchtigkeit
    00:00 -8°C° 0,1 mm 1 m/S 623 mmHg 76%
    01:00 -8°C° 0 mm 1 m/S 623 mmHg 76%
    02:00 -8°C° 0 mm 1 m/S 623 mmHg 77%
    03:00 -8°C° 0 mm 1 m/S 622 mmHg 77%
    04:00 -8°C° 0 mm 1 m/S 622 mmHg 76%
    05:00 -7°C° 0 mm 1 m/S 622 mmHg 75%
    06:00 -7°C° 0 mm 1 m/S 622 mmHg 75%
    07:00 -7°C° 0,4 mm 2 m/S 622 mmHg 75%
    08:00 -6°C° 0,4 mm 2 m/S 622 mmHg 75%
    09:00 -6°C° 0,4 mm 3 m/S 622 mmHg 75%
    10:00 -5°C° 0,6 mm 3 m/S 622 mmHg 76%
    11:00 -4°C° 0,6 mm 3 m/S 622 mmHg 76%
    12:00 -3°C° 0,6 mm 4 m/S 622 mmHg 77%
    13:00 -3°C° 0,5 mm 4 m/S 621 mmHg 78%
    14:00 -3°C° 0,5 mm 4 m/S 621 mmHg 80%
    15:00 -2°C° 0,5 mm 4 m/S 620 mmHg 82%
    16:00 -3°C° 0,5 mm 4 m/S 620 mmHg 85%
    17:00 -3°C° 0,5 mm 4 m/S 619 mmHg 87%
    18:00 -2°C° 0,5 mm 3 m/S 618 mmHg 90%
    19:00 -2°C° 0,5 mm 3 m/S 618 mmHg 91%
    20:00 -2°C° 0,5 mm 3 m/S 618 mmHg 92%
    21:00 -1°C° 0,5 mm 3 m/S 618 mmHg 92%
    22:00 -1°C° 0,8 mm 3 m/S 618 mmHg 92%
    23:00 -1°C° 0,8 mm 3 m/S 618 mmHg 92%

    1 März, Donnerstag

    Zeit Temperatur Niederschläge Wind Luftdruck Luftfeuchtigkeit
    00:00 0°C° 0,8 mm 3 m/S 617 mmHg 92%
    01:00 0°C° 1,2 mm 3 m/S 617 mmHg 92%
    02:00 0°C° 1,2 mm 3 m/S 617 mmHg 93%
    03:00 0°C° 1,2 mm 3 m/S 616 mmHg 93%
    04:00 +1°C° 0,2 mm 2 m/S 616 mmHg 92%
    05:00 +1°C° 0,2 mm 2 m/S 616 mmHg 92%
    06:00 +1°C° 0,2 mm 2 m/S 616 mmHg 91%
    07:00 +2°C° 0,1 mm 2 m/S 616 mmHg 89%
    08:00 +3°C° 0,1 mm 2 m/S 616 mmHg 87%
    09:00 +3°C° 0,1 mm 3 m/S 617 mmHg 85%
    10:00 +3°C° 0,5 mm 3 m/S 616 mmHg 84%
    11:00 +4°C° 0,5 mm 3 m/S 616 mmHg 83%
    12:00 +5°C° 0,5 mm 4 m/S 616 mmHg 82%
    13:00 +4°C° 0,6 mm 4 m/S 616 mmHg 83%
    14:00 +4°C° 0,6 mm 3 m/S 615 mmHg 83%
    15:00 +4°C° 0,6 mm 3 m/S 615 mmHg 84%
    16:00 +3°C° 0,1 mm 3 m/S 615 mmHg 86%
    17:00 +3°C° 0,1 mm 2 m/S 615 mmHg 89%
    18:00 +2°C° 0,1 mm 2 m/S 615 mmHg 91%
    19:00 +2°C° 0,2 mm 2 m/S 615 mmHg 90%
    20:00 +2°C° 0,2 mm 2 m/S 615 mmHg 89%
    21:00 +1°C° 0,2 mm 3 m/S 616 mmHg 88%
    22:00 +1°C° 0,1 mm 3 m/S 616 mmHg 88%
    23:00 +2°C° 0,1 mm 2 m/S 616 mmHg 88%
    Mehr zeigen